Location: Unspecified
(0.0000°N, 0.0000°E)
Time: 19:19:07
(UTC+00:00)

Envisat - Visible Passes

Search period start: 19 August 2019 00:00
Search period end: 29 August 2019 00:00
Orbit: 764 x 766 km, 98.1° (Epoch: 19 August)

Date Brightness Start Highest point End Pass type
(mag) Time Alt. Az. Time Alt. Az. Time Alt. Az.
19 Aug 3.8 19:00:01 10° S 19:04:57 54° WSW 19:09:53 10° NNW visible
20 Aug 3.2 18:23:21 10° SSE 18:28:17 52° ENE 18:33:12 10° N visible
21 Aug 5.1 19:26:14 10° SSW 19:30:23 26° WSW 19:34:32 10° NW visible
22 Aug 3.2 18:48:40 10° S 18:53:44 74° WSW 18:58:47 10° NNW visible
23 Aug 6.0 19:53:52 10° SW 19:55:48 12° WSW 19:57:42 10° W visible
24 Aug 4.6 19:14:35 10° SSW 19:19:10 35° WSW 19:23:44 10° NW visible
25 Aug 3.0 18:37:25 10° SSE 18:42:31 81° ENE 18:47:35 10° N visible
26 Aug 6.3 05:33:17 10° E 05:34:46 11° ESE 05:36:15 10° ESE visible
26 Aug 5.7 19:41:24 10° SW 19:44:35 17° WSW 19:47:47 10° WNW visible
27 Aug 4.0 19:03:04 10° S 19:07:57 47° WSW 19:12:48 10° NNW visible
28 Aug 3.1 18:26:17 10° SSE 18:31:17 59° ENE 18:36:16 10° N visible
